User: anonymous   Login
Location: Albany
(35.0000°S, 118.0000°E)
Time: 16:14:01
(UTC-05:00)
Language:

Cosmos 1758 Rocket - Orbit

View from above orbital plane
View from above orbital plane
View from above satellite
View from above satellite

Ground track
Ground track

The orbit data is extracted from the following two-line orbital elements,

1 16792U 86046B   17023.86807265 +.00000090 +00000-0 +80557-5 0  9993
2 16792 082.4844 338.1966 0025488 050.6989 330.1941 14.83112808632409
Epoch (UTC): 23 January 2017 20:50:01
Eccentricity: 0.0025488
inclination: 82.4844°
perigee height: 601 km
apogee height: 637 km
right ascension of ascending node: 338.1966°
argument of perigee: 50.6989°
revolutions per day: 14.83112808
mean anomaly at epoch: 330.1941°
orbit number at epoch: 63240

The dashed part of the orbit path shows where the satellite is in the earth's shadow,  

DLR